Location: PSU-Greenbush Astrophysical Observatory
(37.5140°N, 94.9880°W)
Time: 12:05:37
(UTC-06:00)

Altair - Pass Details

Date: 02 February 2020
Orbit: 1502 x 1682 km, 47.2° (Epoch: 22 February)

Event Time Altitude Azimuth Distance (km) Brightness Sun altitude
Rises 14:41:12 0° 297° (WNW) 4,936 10.3 28.0°
Reaches altitude 10° 14:44:57 10° 286° (WNW) 3,938 10.0 27.5°
Maximum altitude 14:53:02 28° 233° (SW) 2,724 10.9 26.6°
Drops below altitude 10° 15:00:57 10° 178° (S) 3,845 10.5 25.6°
Sets 15:04:36 0° 168° (SSE) 4,801 10.6 25.1°
